Location: Baller�as
(41.9020°N, 0.1554°W)
Time: 12:23:25
(UTC+00:00)

H-2A R/B - Pass Details

Date: 10 August 2020
Orbit: 575 x 597 km, 98.2° (Epoch: 21 September)

Event Time Altitude Azimuth Distance (km) Brightness Sun altitude
Rises 20:31:36 0° 17° (NNE) 2,804 7.2 -14.5°
Reaches altitude 10° 20:33:48 10° 22° (NNE) 1,903 6.2 -14.9°
Maximum altitude 20:37:51 54° 100° (E) 712 3.5 -15.5°
Enters shadow 20:40:37 19° 173° (S) 1,402 5.0 -15.9°
